| time (UTC) | temp F | wind direction | speed knots | gust knots | rain 1hr in | rain 24hr in | rain mn in | humidity % | barometer mb |
| 20260510143801 | 57 | 343 | 11.3 | 20.0 | 0.00 | 0.00 | 0.00 | 70 | 1019.7 |
| 20260510143155 | 58 | 337 | 13.0 | 19.1 | 0.00 | 0.00 | 0.00 | 70 | 1019.7 |
| 20260510142601 | 57 | 358 | 13.0 | 19.1 | 0.00 | 0.00 | 0.00 | 71 | 1019.7 |
| 20260510142011 | 57 | 335 | 7.8 | 13.9 | 0.00 | 0.00 | 0.00 | 71 | 1019.4 |
| 20260510141612 | 56 | 11 | 10.4 | 19.1 | 0.00 | 0.00 | 0.00 | 72 | 1019.4 |
| 20260510140850 | 56 | 342 | 11.3 | 19.1 | 0.00 | 0.00 | 0.00 | 72 | 1019.7 |
| 20260510140327 | 56 | 6 | 12.2 | 19.1 | 0.00 | 0.00 | 0.00 | 72 | 1019.7 |
| 20260510135814 | 56 | 346 | 13.9 | 16.5 | 0.00 | 0.00 | 0.00 | 72 | 1019.4 |
| 20260510135155 | 57 | 337 | 13.0 | 16.5 | 0.00 | 0.00 | 0.00 | 72 | 1019.4 |
| 20260510134545 | 57 | 1 | 9.6 | 18.2 | 0.00 | 0.00 | 0.00 | 72 | 1019.4 |
| 20260510134000 | 57 | 19 | 14.8 | 19.1 | 0.00 | 0.00 | 0.00 | 72 | 1019.4 |
| 20260510133405 | 57 | 3 | 7.0 | 19.1 | 0.00 | 0.00 | 0.00 | 71 | 1019.4 |
| 20260510132758 | 57 | 14 | 12.2 | 15.6 | 0.00 | 0.00 | 0.00 | 71 | 1019.4 |
| 20260510132214 | 57 | 349 | 10.4 | 14.8 | 0.00 | 0.00 | 0.00 | 71 | 1019.4 |
| 20260510131552 | 58 | 336 | 9.6 | 15.6 | 0.00 | 0.00 | 0.00 | 70 | 1018.7 |
| 20260510130952 | 58 | 0 | 7.0 | 14.8 | 0.00 | 0.00 | 0.00 | 69 | 1018.3 |
| 20260510130408 | 58 | 359 | 11.3 | 14.8 | 0.00 | 0.00 | 0.00 | 69 | 1018.7 |
| 20260510125800 | 58 | 351 | 7.0 | 13.9 | 0.00 | 0.00 | 0.00 | 69 | 1018.3 |
| 20260510125158 | 58 | 331 | 10.4 | 15.6 | 0.00 | 0.00 | 0.00 | 69 | 1018.0 |
| 20260510124900 | 58 | 341 | 4.3 | 13.0 | 0.00 | 0.00 | 0.00 | 68 | 1017.7 |
| 20260510124046 | 58 | 336 | 5.2 | 12.2 | 0.00 | 0.00 | 0.00 | 68 | 1017.7 |
| 20260510123718 | 58 | 325 | 8.7 | 11.3 | 0.00 | 0.00 | 0.00 | 68 | 1017.7 |
| 20260510122856 | 57 | 358 | 7.0 | 13.0 | 0.00 | 0.00 | 0.00 | 67 | 1017.7 |
| 20260510122236 | 57 | 330 | 7.8 | 13.0 | 0.00 | 0.00 | 0.00 | 66 | 1017.3 |
| 20260510121653 | 57 | 9 | 7.8 | 13.0 | 0.00 | 0.00 | 0.00 | 66 | 1017.7 |
| 20260510121100 | 57 | 338 | 4.3 | 13.0 | 0.00 | 0.00 | 0.00 | 65 | 1017.7 |
| 20260510120501 | 58 | 359 | 4.3 | 8.7 | 0.00 | 0.00 | 0.00 | 66 | 1017.7 |
| 20260510115846 | 58 | 357 | 5.2 | 11.3 | 0.00 | 0.00 | 0.00 | 66 | 1017.0 |
| 20260510115255 | 58 | 329 | 6.1 | 12.2 | 0.00 | 0.00 | 0.00 | 65 | 1016.7 |
| 20260510114909 | 58 | 17 | 9.6 | 12.2 | 0.00 | 0.00 | 0.00 | 64 | 1016.7 |
| 20260510114755 | 58 | 18 | 4.3 | 9.6 | 0.00 | 0.00 | 0.00 | 63 | 1016.3 |
| 20260510113504 | 59 | 354 | 0.0 | 9.6 | 0.00 | 0.00 | 0.00 | 61 | 1016.3 |
| 20260510112954 | 59 | 303 | 5.2 | 12.2 | 0.00 | 0.00 | 0.00 | 60 | 1016.3 |
| 20260510112354 | 59 | 19 | 6.1 | 12.2 | 0.00 | 0.00 | 0.00 | 58 | 1016.3 |
| 20260510111802 | 60 | 352 | 3.5 | 11.3 | 0.00 | 0.00 | 0.00 | 57 | 1016.3 |
| 20260510111152 | 60 | 335 | 6.1 | 11.3 | 0.00 | 0.00 | 0.00 | 58 | 1016.3 |
| 20260510110554 | 61 | 348 | 6.1 | 13.0 | 0.00 | 0.00 | 0.00 | 65 | 1016.0 |
| 20260510110220 | 62 | 4 | 7.0 | 13.0 | 0.00 | 0.00 | 0.00 | 76 | 1015.6 |
| 20260510105613 | 62 | 0 | 5.2 | 9.6 | 0.00 | 0.00 | 0.00 | 76 | 1015.6 |
| 20260510104757 | 62 | 0 | 4.3 | 11.3 | 0.00 | 0.00 | 0.00 | 76 | 1015.6 |
| 20260510104152 | 62 | 7 | 5.2 | 15.6 | 0.00 | 0.00 | 0.00 | 76 | 1015.3 |
| 20260510103555 | 62 | 338 | 8.7 | 15.6 | 0.00 | 0.00 | 0.00 | 77 | 1015.3 |
| 20260510102952 | 62 | 11 | 2.6 | 13.0 | 0.00 | 0.00 | 0.00 | 77 | 1015.3 |
| 20260510102613 | 62 | 352 | 6.1 | 8.7 | 0.00 | 0.00 | 0.00 | 77 | 1015.0 |
| 20260510101756 | 62 | 350 | 5.2 | 8.7 | 0.00 | 0.00 | 0.00 | 76 | 1015.3 |
| 20260510101155 | 62 | 12 | 5.2 | 7.8 | 0.00 | 0.00 | 0.00 | 74 | 1015.3 |
| 20260510100827 | 62 | 341 | 1.7 | 5.2 | 0.00 | 0.00 | 0.00 | 73 | 1015.3 |
| 20260510095953 | 62 | 38 | 0.0 | 0.0 | 0.00 | 0.00 | 0.00 | 71 | 1014.6 |
| 20260510095341 | 62 | 14 | 0.0 | 7.0 | 0.00 | 0.00 | 0.00 | 70 | 1014.3 |
| 20260510094756 | 62 | 349 | 5.2 | 7.0 | 0.00 | 0.00 | 0.00 | 68 | 1014.3 |
| 20260510094156 | 63 | 4 | 0.0 | 3.5 | 0.00 | 0.00 | 0.00 | 67 | 1013.9 |
| 20260510093553 | 63 | 21 | 0.0 | 8.7 | 0.00 | 0.00 | 0.00 | 65 | 1013.9 |
| 20260510093445 | 64 | 4 | 6.1 | 8.7 | 0.00 | 0.00 | 0.00 | 63 | 1013.9 |
| 20260510092402 | 64 | 6 | 3.5 | 6.1 | 0.00 | 0.00 | 0.00 | 61 | 1013.9 |
| 20260510092036 | 64 | 13 | 0.0 | 2.6 | 0.00 | 0.00 | 0.00 | 59 | 1013.9 |
| 20260510091156 | 64 | 21 | 0.9 | 7.0 | 0.00 | 0.00 | 0.00 | 56 | 1013.9 |
| 20260510090600 | 65 | 24 | 0.0 | 1.7 | 0.00 | 0.00 | 0.00 | 53 | 1013.6 |
| 20260510090219 | 65 | 15 | 0.0 | 5.2 | 0.00 | 0.00 | 0.00 | 49 | 1013.6 |
| 20260510085359 | 66 | 51 | 4.3 | 5.2 | 0.00 | 0.00 | 0.00 | 47 | 1013.9 |
| 20260510084756 | 66 | 7 | 0.9 | 7.0 | 0.00 | 0.00 | 0.00 | 44 | 1013.9 |
| 20260510084155 | 66 | 343 | 5.2 | 7.0 | 0.00 | 0.00 | 0.00 | 42 | 1013.6 |
| 20260510083820 | 67 | 5 | 0.0 | 5.2 | 0.00 | 0.00 | 0.00 | 38 | 1013.6 |
| 20260510083035 | 67 | 5 | 4.3 | 7.8 | 0.00 | 0.00 | 0.00 | 37 | 1013.3 |
| 20260510082450 | 67 | 72 | 0.0 | 3.5 | 0.00 | 0.00 | 0.00 | 35 | 1013.3 |
| 20260510081913 | 67 | 17 | 0.0 | 0.0 | 0.00 | 0.00 | 0.00 | 33 | 1013.3 |
| 20260510081248 | 67 | 349 | 0.0 | 0.9 | 0.00 | 0.00 | 0.00 | 32 | 1013.6 |
| 20260510080907 | 68 | 4 | 0.0 | 3.5 | 0.00 | 0.00 | 0.00 | 31 | 1013.6 |
| 20260510080058 | 68 | 346 | 0.0 | 2.6 | 0.00 | 0.00 | 0.00 | 30 | 1013.6 |
| 20260510075454 | 69 | 354 | 0.0 | 0.9 | 0.00 | 0.00 | 0.00 | 29 | 1013.3 |
| 20260510075124 | 70 | 41 | 0.0 | 2.6 | 0.00 | 0.00 | 0.00 | 28 | 1013.3 |
| 20260510074245 | 71 | 14 | 1.7 | 7.0 | 0.00 | 0.00 | 0.00 | 27 | 1013.3 |
| 20260510073914 | 71 | 14 | 0.0 | 9.6 | 0.00 | 0.00 | 0.00 | 26 | 1013.6 |
| 20260510073111 | 72 | 5 | 0.0 | 7.8 | 0.00 | 0.00 | 0.00 | 24 | 1013.6 |
| 20260510072445 | 72 | 17 | 3.5 | 7.0 | 0.00 | 0.00 | 0.00 | 24 | 1013.3 |
| 20260510071856 | 72 | 12 | 0.0 | 0.9 | 0.00 | 0.00 | 0.00 | 23 | 1013.9 |
| 20260510071256 | 70 | 4 | 0.0 | 1.7 | 0.00 | 0.00 | 0.00 | 23 | 1013.9 |
| 20260510070649 | 70 | 42 | 0.0 | 2.6 | 0.00 | 0.00 | 0.00 | 24 | 1013.6 |
| 20260510070051 | 70 | 357 | 0.0 | 0.9 | 0.00 | 0.00 | 0.00 | 23 | 1013.3 |
| 20260510065458 | 70 | 30 | 0.0 | 0.0 | 0.00 | 0.00 | 0.00 | 23 | 1013.3 |
| 20260510065116 | 71 | 10 | 0.0 | 1.7 | 0.00 | 0.00 | 0.00 | 23 | 1013.6 |
| 20260510064242 | 73 | 355 | 0.0 | 0.0 | 0.00 | 0.00 | 0.00 | 21 | 1013.3 |
| 20260510063928 | 72 | 353 | 0.0 | 0.0 | 0.00 | 0.00 | 0.00 | 21 | 1013.3 |
| 20260510063058 | 74 | 31 | 0.0 | 0.0 | 0.00 | 0.00 | 0.00 | 21 | 1013.3 |
| 20260510062500 | 75 | 161 | 0.0 | 0.0 | 0.00 | 0.00 | 0.00 | 19 | 1012.9 |
| 20260510061907 | 75 | 149 | 0.0 | 0.0 | 0.00 | 0.00 | 0.00 | 19 | 1012.6 |
| 20260510061254 | 74 | 154 | 0.0 | 0.0 | 0.00 | 0.00 | 0.00 | 20 | 1012.6 |
| 20260510060655 | 74 | 144 | 0.0 | 0.0 | 0.00 | 0.00 | 0.00 | 20 | 1012.6 |
| 20260510060113 | 74 | 127 | 0.0 | 0.0 | 0.00 | 0.00 | 0.00 | 21 | 1012.6 |
| 20260510055455 | 74 | 134 | 0.0 | 0.0 | 0.00 | 0.00 | 0.00 | 20 | 1012.6 |
| 20260510054903 | 74 | 3 | 0.0 | 0.0 | 0.00 | 0.00 | 0.00 | 20 | 1012.3 |
| 20260510054355 | 74 | 3 | 0.0 | 0.0 | 0.00 | 0.00 | 0.00 | 20 | 1012.6 |
| 20260510054038 | 75 | 3 | 0.0 | 0.0 | 0.00 | 0.00 | 0.00 | 20 | 1012.6 |
| 20260510053249 | 74 | 3 | 0.0 | 0.0 | 0.00 | 0.00 | 0.00 | 20 | 1012.6 |
| 20260510052701 | 76 | 3 | 0.0 | 0.0 | 0.00 | 0.00 | 0.00 | 19 | 1012.6 |
| 20260510052113 | 76 | 3 | 0.0 | 0.0 | 0.00 | 0.00 | 0.00 | 20 | 1012.6 |
| 20260510051716 | 78 | 3 | 0.0 | 0.0 | 0.00 | 0.00 | 0.00 | 18 | 1012.9 |
| 20260510050853 | 79 | 4 | 0.0 | 0.9 | 0.00 | 0.00 | 0.00 | 18 | 1012.6 |
| 20260510050252 | 81 | 3 | 0.0 | 7.8 | 0.00 | 0.00 | 0.00 | 16 | 1012.9 |
| 20260510045650 | 81 | 78 | 0.0 | 15.6 | 0.00 | 0.00 | 0.00 | 15 | 1012.9 |
| 20260510045053 | 79 | 66 | 0.9 | 11.3 | 0.00 | 0.00 | 0.00 | 17 | 1012.6 |
| 20260510044445 | 76 | 357 | 0.0 | 6.1 | 0.00 | 0.00 | 0.00 | 18 | 1012.6 |
| 20260510043857 | 72 | 350 | 1.7 | 3.5 | 0.00 | 0.00 | 0.00 | 20 | 1012.9 |
| 20260510043254 | 70 | 8 | 0.0 | 0.0 | 0.00 | 0.00 | 0.00 | 24 | 1012.9 |
| 20260510042657 | 71 | 204 | 0.0 | 0.0 | 0.00 | 0.00 | 0.00 | 24 | 1012.6 |
| 20260510042054 | 71 | 204 | 0.0 | 0.0 | 0.00 | 0.00 | 0.00 | 23 | 1012.6 |
| 20260510041506 | 72 | 204 | 0.0 | 0.0 | 0.00 | 0.00 | 0.00 | 23 | 1012.3 |
| 20260510040852 | 72 | 204 | 0.0 | 0.0 | 0.00 | 0.00 | 0.00 | 21 | 1011.9 |
| 20260510040252 | 72 | 204 | 0.0 | 0.0 | 0.00 | 0.00 | 0.00 | 21 | 1012.3 |
| 20260510035919 | 73 | 204 | 0.0 | 0.0 | 0.00 | 0.00 | 0.00 | 23 | 1012.3 |
| 20260510035111 | 73 | 204 | 0.0 | 0.0 | 0.00 | 0.00 | 0.00 | 21 | 1012.3 |
| 20260510034511 | 72 | 204 | 0.0 | 0.0 | 0.00 | 0.00 | 0.00 | 22 | 1012.3 |
| 20260510034113 | 72 | 213 | 0.0 | 0.0 | 0.00 | 0.00 | 0.00 | 23 | 1012.3 |
| 20260510033250 | 71 | 215 | 0.0 | 0.0 | 0.00 | 0.00 | 0.00 | 22 | 1012.3 |
| 20260510032658 | 72 | 215 | 0.0 | 0.0 | 0.00 | 0.00 | 0.00 | 22 | 1012.3 |
| 20260510032315 | 73 | 215 | 0.0 | 0.0 | 0.00 | 0.00 | 0.00 | 21 | 1012.3 |
| 20260510031457 | 74 | 215 | 0.0 | 0.0 | 0.00 | 0.00 | 0.00 | 20 | 1011.9 |
| 20260510030852 | 75 | 209 | 0.0 | 0.0 | 0.00 | 0.00 | 0.00 | 20 | 1012.3 |
| 20260510030254 | 76 | 203 | 0.0 | 0.0 | 0.00 | 0.00 | 0.00 | 19 | 1011.9 |
| 20260510025654 | 76 | 203 | 0.0 | 0.0 | 0.00 | 0.00 | 0.00 | 19 | 1011.9 |
| 20260510025312 | 78 | 203 | 0.0 | 0.0 | 0.00 | 0.00 | 0.00 | 18 | 1011.6 |
| 20260510024511 | 77 | 203 | 0.0 | 0.0 | 0.00 | 0.00 | 0.00 | 18 | 1011.6 |
| 20260510023853 | 78 | 151 | 0.0 | 0.0 | 0.00 | 0.00 | 0.00 | 17 | 1011.6 |
| 20260510023516 | 78 | 168 | 0.0 | 0.0 | 0.00 | 0.00 | 0.00 | 17 | 1011.2 |
| 20260510022700 | 79 | 142 | 0.0 | 0.0 | 0.00 | 0.00 | 0.00 | 17 | 1011.2 |
| 20260510022051 | 79 | 205 | 0.0 | 0.0 | 0.00 | 0.00 | 0.00 | 16 | 1011.2 |
| 20260510021714 | 79 | 198 | 0.0 | 0.0 | 0.00 | 0.00 | 0.00 | 16 | 1011.2 |
| 20260510020856 | 80 | 186 | 0.0 | 0.0 | 0.00 | 0.00 | 0.00 | 16 | 1011.2 |
| 20260510020519 | 80 | 204 | 0.0 | 0.0 | 0.00 | 0.00 | 0.00 | 15 | 1011.2 |
| 20260510015657 | 80 | 202 | 0.0 | 0.0 | 0.00 | 0.00 | 0.00 | 15 | 1010.9 |
| 20260510015059 | 81 | 192 | 0.0 | 0.0 | 0.00 | 0.00 | 0.00 | 15 | 1011.2 |
| 20260510014452 | 82 | 193 | 0.0 | 0.0 | 0.00 | 0.00 | 0.00 | 15 | 1011.2 |
| 20260510013851 | 83 | 202 | 0.0 | 0.0 | 0.00 | 0.00 | 0.00 | 13 | 1010.6 |
| 20260510013254 | 83 | 191 | 0.0 | 1.7 | 0.00 | 0.00 | 0.00 | 13 | 1010.9 |
| 20260510012656 | 84 | 199 | 0.9 | 1.7 | 0.00 | 0.00 | 0.00 | 13 | 1010.6 |
| 20260510012112 | 84 | 354 | 0.0 | 0.0 | 0.00 | 0.00 | 0.00 | 13 | 1010.9 |
| 20260510011712 | 85 | 214 | 0.0 | 7.0 | 0.00 | 0.00 | 0.00 | 13 | 1010.9 |
| 20260510010847 | 83 | 196 | 0.0 | 0.0 | 0.00 | 0.00 | 0.00 | 15 | 1011.2 |
| 20260510010252 | 83 | 208 | 0.0 | 0.0 | 0.00 | 0.00 | 0.00 | 15 | 1011.2 |
| 20260510010129 | 84 | 207 | 0.0 | 7.0 | 0.00 | 0.00 | 0.00 | 14 | 1010.9 |
| 20260510005053 | 84 | 203 | 0.9 | 5.2 | 0.00 | 0.00 | 0.00 | 14 | 1010.9 |
| 20260510004714 | 84 | 192 | 1.7 | 5.2 | 0.00 | 0.00 | 0.00 | 14 | 1011.2 |
| 20260510003856 | 85 | 188 | 0.0 | 0.9 | 0.00 | 0.00 | 0.00 | 14 | 1010.9 |
| 20260510003245 | 85 | 216 | 0.0 | 0.9 | 0.00 | 0.00 | 0.00 | 13 | 1011.2 |
| 20260510002655 | 86 | 219 | 0.0 | 0.0 | 0.00 | 0.00 | 0.00 | 13 | 1011.2 |
| 20260510002102 | 86 | 198 | 0.0 | 0.0 | 0.00 | 0.00 | 0.00 | 14 | 1011.2 |
| 20260510001451 | 86 | 219 | 0.0 | 8.7 | 0.00 | 0.00 | 0.00 | 14 | 1010.9 |
| 20260510000855 | 86 | 182 | 5.2 | 8.7 | 0.00 | 0.00 | 0.00 | 13 | 1011.2 |
| 20260510000250 | 86 | 190 | 1.7 | 8.7 | 0.00 | 0.00 | 0.00 | 14 | 1011.2 |
| 20260509235648 | 86 | 226 | 0.0 | 5.2 | 0.00 | 0.00 | 0.00 | 14 | 1010.9 |
| 20260509235051 | 87 | 194 | 0.9 | 2.6 | 0.00 | 0.00 | 0.00 | 13 | 1011.2 |
| 20260509234955 | 87 | 193 | 0.0 | 0.0 | 0.00 | 0.00 | 0.00 | 14 | 1010.9 |
| 20260509233854 | 87 | 183 | 0.0 | 0.0 | 0.00 | 0.00 | 0.00 | 15 | 1010.9 |
| 20260509233306 | 87 | 236 | 0.0 | 6.1 | 0.00 | 0.00 | 0.00 | 13 | 1011.2 |
| 20260509232701 | 87 | 227 | 2.6 | 6.1 | 0.00 | 0.00 | 0.00 | 12 | 1010.9 |
| 20260509232055 | 87 | 133 | 0.0 | 6.1 | 0.00 | 0.00 | 0.00 | 13 | 1010.9 |
| 20260509231713 | 88 | 181 | 1.7 | 12.2 | 0.00 | 0.00 | 0.00 | 13 | 1010.9 |
| 20260509231006 | 89 | 196 | 0.0 | 6.1 | 0.00 | 0.00 | 0.00 | 12 | 1011.2 |
| 20260509230852 | 90 | 229 | 6.1 | 12.2 | 0.00 | 0.00 | 0.00 | 12 | 1011.2 |
| 20260509225653 | 91 | 199 | 0.0 | 8.7 | 0.00 | 0.00 | 0.00 | 12 | 1010.9 |
| 20260509225056 | 92 | 220 | 5.2 | 8.7 | 0.00 | 0.00 | 0.00 | 11 | 1011.2 |
| 20260509224721 | 92 | 209 | 0.0 | 1.7 | 0.00 | 0.00 | 0.00 | 11 | 1011.2 |
| 20260509224056 | 91 | 212 | 0.0 | 1.7 | 0.00 | 0.00 | 0.00 | 11 | 1010.9 |
| 20260509223302 | 92 | 201 | 0.9 | 1.7 | 0.00 | 0.00 | 0.00 | 11 | 1011.2 |
| 20260509222653 | 91 | 212 | 0.0 | 0.9 | 0.00 | 0.00 | 0.00 | 11 | 1011.2 |
| 20260509222052 | 90 | 201 | 0.0 | 7.0 | 0.00 | 0.00 | 0.00 | 11 | 1011.2 |
| 20260509221510 | 89 | 197 | 0.0 | 0.9 | 0.00 | 0.00 | 0.00 | 11 | 1011.2 |
| 20260509220855 | 90 | 227 | 0.0 | 0.0 | 0.00 | 0.00 | 0.00 | 11 | 1011.2 |
| 20260509220225 | 90 | 242 | 0.0 | 1.7 | 0.00 | 0.00 | 0.00 | 12 | 1011.2 |
| 20260509215653 | 89 | 339 | 0.0 | 0.0 | 0.00 | 0.00 | 0.00 | 12 | 1011.2 |
| 20260509215306 | 88 | 194 | 0.0 | 0.0 | 0.00 | 0.00 | 0.00 | 13 | 1011.6 |
| 20260509214452 | 89 | 128 | 0.0 | 0.0 | 0.00 | 0.00 | 0.00 | 12 | 1011.9 |
| 20260509213844 | 89 | 148 | 0.0 | 0.0 | 0.00 | 0.00 | 0.00 | 11 | 1011.6 |
| 20260509213252 | 89 | 236 | 0.0 | 2.6 | 0.00 | 0.00 | 0.00 | 11 | 1011.9 |
| 20260509212650 | 91 | 177 | 0.9 | 2.6 | 0.00 | 0.00 | 0.00 | 11 | 1011.6 |
| 20260509212049 | 91 | 162 | 0.0 | 0.0 | 0.00 | 0.00 | 0.00 | 11 | 1011.9 |
| 20260509211452 | 93 | 240 | 0.0 | 0.0 | 0.00 | 0.00 | 0.00 | 10 | 1012.3 |
| 20260509210850 | 93 | 197 | 0.0 | 0.0 | 0.00 | 0.00 | 0.00 | 10 | 1012.3 |
| 20260509210329 | 93 | 240 | 0.0 | 0.9 | 0.00 | 0.00 | 0.00 | 10 | 1012.3 |
| 20260509205804 | 93 | 350 | 0.0 | 9.6 | 0.00 | 0.00 | 0.00 | 10 | 1012.6 |
| 20260509205516 | 93 | 263 | 3.5 | 9.6 | 0.00 | 0.00 | 0.00 | 10 | 1012.3 |
| 20260509204654 | 92 | 231 | 0.0 | 1.7 | 0.00 | 0.00 | 0.00 | 10 | 1012.3 |
| 20260509204051 | 92 | 19 | 0.0 | 2.6 | 0.00 | 0.00 | 0.00 | 11 | 1012.3 |
| 20260509203453 | 92 | 325 | 0.9 | 2.6 | 0.00 | 0.00 | 0.00 | 10 | 1012.9 |
| 20260509202852 | 91 | 201 | 0.0 | 7.8 | 0.00 | 0.00 | 0.00 | 12 | 1012.6 |
| 20260509202254 | 92 | 246 | 2.6 | 7.8 | 0.00 | 0.00 | 0.00 | 11 | 1012.9 |
| 20260509201658 | 93 | 321 | 0.0 | 0.0 | 0.00 | 0.00 | 0.00 | 12 | 1013.3 |
| 20260509201032 | 92 | 247 | 0.0 | 0.0 | 0.00 | 0.00 | 0.00 | 11 | 1012.9 |
| 20260509200451 | 91 | 357 | 0.0 | 7.8 | 0.00 | 0.00 | 0.00 | 11 | 1013.3 |
| 20260509195853 | 93 | 344 | 0.0 | 0.0 | 0.00 | 0.00 | 0.00 | 11 | 1012.9 |
| 20260509195247 | 92 | 165 | 0.0 | 0.9 | 0.00 | 0.00 | 0.00 | 11 | 1012.9 |
| 20260509194658 | 90 | 241 | 0.0 | 0.9 | 0.00 | 0.00 | 0.00 | 12 | 1013.3 |
| 20260509194052 | 91 | 316 | 0.0 | 0.0 | 0.00 | 0.00 | 0.00 | 11 | 1013.3 |
| 20260509193443 | 91 | 271 | 0.0 | 0.0 | 0.00 | 0.00 | 0.00 | 12 | 1013.3 |
| 20260509192854 | 90 | 12 | 0.0 | 0.0 | 0.00 | 0.00 | 0.00 | 12 | 1013.6 |
| 20260509192307 | 91 | 226 | 0.0 | 0.0 | 0.00 | 0.00 | 0.00 | 14 | 1013.6 |
| 20260509192011 | 90 | 284 | 0.0 | 0.0 | 0.00 | 0.00 | 0.00 | 13 | 1013.6 |
| 20260509191150 | 91 | 208 | 0.0 | 0.0 | 0.00 | 0.00 | 0.00 | 13 | 1013.6 |
| 20260509190601 | 91 | 216 | 0.0 | 0.0 | 0.00 | 0.00 | 0.00 | 13 | 1013.6 |
| 20260509185954 | 90 | 139 | 0.0 | 0.0 | 0.00 | 0.00 | 0.00 | 14 | 1013.6 |
| 20260509185346 | 90 | 185 | 0.0 | 0.0 | 0.00 | 0.00 | 0.00 | 14 | 1013.9 |
| 20260509184753 | 90 | 168 | 0.0 | 2.6 | 0.00 | 0.00 | 0.00 | 13 | 1014.3 |
| 20260509184204 | 89 | 190 | 0.9 | 6.1 | 0.00 | 0.00 | 0.00 | 14 | 1013.9 |
| 20260509183656 | 90 | 216 | 1.7 | 6.1 | 0.00 | 0.00 | 0.00 | 14 | 1014.3 |
| 20260509183052 | 89 | 185 | 0.0 | 0.0 | 0.00 | 0.00 | 0.00 | 16 | 1014.3 |
| 20260509182719 | 89 | 212 | 0.0 | 0.0 | 0.00 | 0.00 | 0.00 | 14 | 1014.6 |
| 20260509181912 | 87 | 192 | 0.0 | 5.2 | 0.00 | 0.00 | 0.00 | 15 | 1014.6 |
| 20260509181255 | 87 | 215 | 0.0 | 5.2 | 0.00 | 0.00 | 0.00 | 15 | 1014.6 |
| 20260509180652 | 87 | 205 | 0.0 | 3.5 | 0.00 | 0.00 | 0.00 | 14 | 1014.6 |
| 20260509180058 | 87 | 172 | 0.0 | 1.7 | 0.00 | 0.00 | 0.00 | 15 | 1014.6 |
| 20260509175452 | 88 | 229 | 0.0 | 0.0 | 0.00 | 0.00 | 0.00 | 15 | 1015.0 |
| 20260509174932 | 87 | 150 | 0.0 | 1.7 | 0.00 | 0.00 | 0.00 | 17 | 1015.0 |
| 20260509174612 | 86 | 191 | 0.0 | 2.6 | 0.00 | 0.00 | 0.00 | 17 | 1015.0 |
| 20260509173803 | 86 | 182 | 1.7 | 2.6 | 0.00 | 0.00 | 0.00 | 19 | 1015.0 |
| 20260509173245 | 85 | 348 | 0.0 | 1.7 | 0.00 | 0.00 | 0.00 | 21 | 1015.0 |
| 20260509172651 | 85 | 185 | 0.0 | 0.0 | 0.00 | 0.00 | 0.00 | 21 | 1015.0 |
| 20260509172056 | 84 | 179 | 0.0 | 0.0 | 0.00 | 0.00 | 0.00 | 21 | 1015.3 |
| 20260509171457 | 83 | 200 | 0.0 | 12.2 | 0.00 | 0.00 | 0.00 | 21 | 1015.3 |
| 20260509170847 | 83 | 206 | 5.2 | 12.2 | 0.00 | 0.00 | 0.00 | 21 | 1015.3 |
| 20260509170516 | 82 | 229 | 0.0 | 7.8 | 0.00 | 0.00 | 0.00 | 23 | 1015.0 |
| 20260509165919 | 82 | 200 | 1.7 | 5.2 | 0.00 | 0.00 | 0.00 | 22 | 1015.6 |
| 20260509165055 | 81 | 186 | 0.0 | 3.5 | 0.00 | 0.00 | 0.00 | 23 | 1015.6 |
| 20260509164457 | 81 | 206 | 1.7 | 3.5 | 0.00 | 0.00 | 0.00 | 23 | 1015.6 |
| 20260509164104 | 80 | 182 | 0.0 | 3.5 | 0.00 | 0.00 | 0.00 | 24 | 1015.3 |
| 20260509163256 | 81 | 200 | 0.0 | 3.5 | 0.00 | 0.00 | 0.00 | 23 | 1015.3 |
| 20260509162708 | 79 | 187 | 1.7 | 6.1 | 0.00 | 0.00 | 0.00 | 24 | 1015.6 |
| 20260509162106 | 78 | 200 | 0.0 | 9.6 | 0.00 | 0.00 | 0.00 | 25 | 1015.6 |
| 20260509161553 | 78 | 192 | 0.0 | 6.1 | 0.00 | 0.00 | 0.00 | 24 | 1015.3 |
| 20260509160947 | 77 | 203 | 2.6 | 2.6 | 0.00 | 0.00 | 0.00 | 26 | 1015.3 |
| 20260509160419 | 76 | 136 | 0.0 | 5.2 | 0.00 | 0.00 | 0.00 | 26 | 1015.0 |
| 20260509155804 | 75 | 204 | 1.7 | 9.6 | 0.00 | 0.00 | 0.00 | 27 | 1015.0 |
| 20260509155151 | 75 | 228 | 1.7 | 8.7 | 0.00 | 0.00 | 0.00 | 27 | 1015.3 |
| 20260509154551 | 75 | 142 | 0.0 | 1.7 | 0.00 | 0.00 | 0.00 | 27 | 1015.0 |
| 20260509154004 | 75 | 185 | 0.0 | 1.7 | 0.00 | 0.00 | 0.00 | 29 | 1015.3 |
| 20260509153350 | 74 | 159 | 0.0 | 7.8 | 0.00 | 0.00 | 0.00 | 29 | 1015.3 |
| 20260509152755 | 72 | 173 | 0.0 | 7.8 | 0.00 | 0.00 | 0.00 | 31 | 1015.0 |
| 20260509152634 | 71 | 198 | 0.9 | 7.8 | 0.00 | 0.00 | 0.00 | 32 | 1015.3 |
| 20260509151552 | 71 | 149 | 0.0 | 11.3 | 0.00 | 0.00 | 0.00 | 33 | 1015.0 |
| 20260509150957 | 71 | 159 | 2.6 | 11.3 | 0.00 | 0.00 | 0.00 | 33 | 1015.3 |
| 20260509150619 | 70 | 144 | 1.7 | 7.8 | 0.00 | 0.00 | 0.00 | 33 | 1015.0 |
| 20260509150029 | 69 | 130 | 3.5 | 7.8 | 0.00 | 0.00 | 0.00 | 35 | 1015.3 |
| 20260509145203 | 69 | 151 | 2.6 | 11.3 | 0.00 | 0.00 | 0.00 | 35 | 1015.3 |
| 20260509144616 | 69 | 131 | 5.2 | 7.8 | 0.00 | 0.00 | 0.00 | 36 | 1015.3 |